Miscellaneous Local Product
Issued by NWS North Platte, NE

Home | Current Version | Previous Version | Text Only | Print | Product List | Glossary On
Versions: 1 2 3 4 5 6 7 8 9 10 11 12 13 14 15 16 17 18 19 20 21 22 23 24 25 26 27 28 29 30 31 32 33 34 35 36 37 38 39 40 41 42 43 44 45 46 47 48 49 50
000
AXUS43 KLBF 311510
MISLBF


WESTERN AND NORTH CENTRAL NEBRASKA HOURLY WEATHER ROUNDUP
NATIONAL WEATHER SERVICE NORTH PLATTE NE
1000 AM CDT FRI JUL 31 2015

***STATIONS NOT REPORTING VARIABLES SUCH AS SKY/WEATHER OR
PRESSURE ARE PROVIDED BY THE NEBRASKA DEPARTMENT OF
ROADS...RAWS...AND APRS NETWORKS...AND ARE NOT UNDER
NATIONAL WEATHER SERVICE QUALITY CONTROL***

...OBSERVATIONS IN AND NEAR THE EASTERN PANHANDLE OF NEBRASKA...

CITY           SKY/WX    TMP DP  RH WIND       PRES   REMARKS
PINE RIDGE     SUNNY     74  57  55 NW3       30.24S
CHADRON        SUNNY     70  55  59 SW5       30.24S
ALLIANCE       SUNNY     74  61  63 SE5       30.27S
SIDNEY         SUNNY     74  59  59 S6        30.31F
BIG SPRINGS      N/A     71  63  76 CALM        N/A
$$

...OBSERVATIONS IN NORTH CENTRAL NEBRASKA...

CITY           SKY/WX    TMP DP  RH WIND       PRES   REMARKS
VALENTINE      SUNNY     81  59  47 W6        30.19F
THEDFORD       SUNNY     78  62  56 CALM      30.24S
AINSWORTH      SUNNY     80  65  59 NE5       30.20S
O`NEILL        SUNNY     79  66  65 E5        30.18F
ORD            SUNNY     80  67  64 SW6       30.17F
BROKEN BOW     SUNNY     81  68  64 W6        30.20F
SPRINGVIEW       N/A     78  63  60 CALM        N/A
CHAMBERS         N/A     83  66  56 N3          N/A
EWING            N/A     78  70  77 CALM        N/A
$$

...OBSERVATIONS IN SOUTHWEST NEBRASKA AND FAR NORTHEAST COLORADO...

CITY           SKY/WX    TMP DP  RH WIND       PRES   REMARKS
WRAY           FAIR      76  61  59 SW7       30.28S
IMPERIAL       SUNNY     78  61  55 W5        30.25F
OGALLALA       SUNNY     73  66  79 SW3       30.26S
NORTH PLATTE   SUNNY     77  64  64 W5        30.22F
MCCOOK         SUNNY     77  67  71 SW6       30.22F
LEXINGTON      SUNNY     79  69  73 W5        30.21F
PAXTON           N/A     72  67  83 CALM        N/A
BRADY            N/A     75  68  78 CALM        N/A
CALLAWAY         N/A     79  72  79 SW8         N/A
$$

...NORTH PLATTE AREA...

CITY           SKY/WX    TMP DP  RH WIND       PRES   REMARKS
AIRPORT        SUNNY     77  64  64 W5        30.22F
DOWNTOWN         N/A     78  65  64 CALM        N/A
HILLCREST        N/A     74  65  74 W3          N/A
$$

...SOME WEATHER OBSERVATIONS FROM AROUND THE REGION...

CITY           SKY/WX    TMP DP  RH WIND       PRES   REMARKS
DENVER         MOSUNNY   73  57  57 VRB5      30.36S
LARAMIE        SUNNY     66  46  48 VRB5      30.47S
CHEYENNE       SUNNY     75  53  46 SW3       30.39S
SCOTTSBLUFF    SUNNY     71  59  65 SE5       30.28S
RAPID CITY     SUNNY     72  53  51 N8        30.24R
PIERRE         SUNNY     76  53  44 SE9       30.16F
WINNER         FAIR      81  59  47 E8        30.18S
SIOUX FALLS    MOSUNNY   76  61  59 NE7       30.17S
OMAHA          MOSUNNY   83  69  62 SW8       30.13F
GRAND ISLAND   SUNNY     81  69  67 W8        30.19F
KANSAS CITY    SUNNY     77  67  71 SW7       30.17F
WICHITA        PTSUNNY   82  65  56 CALM      30.18F
HAYS           SUNNY     79  64  61 W6        30.22F
LIBERAL        CLOUDY    73  68  83 CALM      30.27R
GOODLAND       SUNNY     75  67  76 S10       30.29S
$$



USA.gov is the U.S. government's official web portal to all federal, state and local government web resources and services.